Waarnemingen

Advertentie
Mijn weer
Kirkwall, Groot Brittannië (3017): temperatuur & dauwpunt: 20.09.2018 08:00:00 - 26.09.2018 08:00:00 (BST)Kirkwall, Groot Brittannië (3017): temperatuur -20cm & temperatuur -100cm: 20.09.2018 08:00:00 - 26.09.2018 08:00:00 (BST)Kirkwall, Groot Brittannië (3017): windsnelheid & windstoten: 20.09.2018 08:00:00 - 26.09.2018 08:00:00 (BST)Kirkwall, Groot Brittannië (3017): windrichting: 20.09.2018 08:00:00 - 26.09.2018 08:00:00 (BST)Kirkwall, Groot Brittannië (3017): luchtdruk: 20.09.2018 08:00:00 - 26.09.2018 08:00:00 (BST)Kirkwall, Groot Brittannië (3017): zicht: 20.09.2018 08:00:00 - 26.09.2018 08:00:00 (BST)Kirkwall, Groot Brittannië (3017): Zonneschijnduur: 20.09.2018 08:00:00 - 26.09.2018 08:00:00 (BST)Kirkwall, Groot Brittannië (3017): neerslag: 20.09.2018 08:00:00 - 26.09.2018 08:00:00 (BST)
Datum & Tijd tt [°C] td [°C] tt -20cm [°C] tt -100cm [°C] ff [km/u] ff [kn] fx [km/u] fx [kn] dd ppp [hPa] vv [km] sd [min] rr [mm]
26.09.2018 08:00:00 11,6 11,1 - - 26 14 - - W 1013,5 3,2 0 0,2
26.09.2018 07:00:00 11,8 11,2 - - 26 14 54 29 W 1012,3 4,5 0 0,2
26.09.2018 06:00:00 12,5 11,8 - - 34 18 68 37 W 1011,2 6 0 0,2
26.09.2018 05:00:00 12,9 12,2 - - 46 25 72 39 W 1010,1 2,5 0 0,2
26.09.2018 04:00:00 13,6 12,5 - - 52 28 74 40 WZW 1009,3 12 0 0,2
26.09.2018 03:00:00 13,7 12,8 - - 52 28 72 39 WZW 1009,0 9 0 0,6
26.09.2018 02:00:00 13,7 12,8 - - 28 15 46 25 ZW 1009,5 10 0 0,6
26.09.2018 01:00:00 13,9 13,0 - - 29 16 - - WZW 1010,0 17 - 0,0
26.09.2018 00:00:00 13,0 12,6 - - 31 17 - - ZW 1010,1 40 0 1,0
25.09.2018 23:00:00 12,7 12,4 - - 29 16 46 25 ZZW 1010,9 5 0 1,8
25.09.2018 22:00:00 12,7 12,3 - - 35 19 48 26 ZW 1011,6 2,7 0 0,8
25.09.2018 21:00:00 12,3 11,4 - - 35 19 52 28 ZZW 1012,1 4,8 0 0,2
25.09.2018 20:00:00 12,3 10,7 - - 28 15 - - ZZW 1012,2 40 0 0,0
25.09.2018 19:00:00 11,7 10,1 - - 29 16 48 26 ZZW 1012,3 45 0 0,6
25.09.2018 18:00:00 11,1 10,1 - - 35 19 55 30 ZZW 1013,5 4,7 0 0,2
25.09.2018 17:00:00 11,5 8,6 - - 37 20 55 30 Z 1014,6 35 0 0,0
25.09.2018 16:00:00 11,7 7,9 - - 39 21 65 35 Z 1016,0 22 0 0,0
25.09.2018 15:00:00 11,6 6,6 - - 44 24 65 35 Z 1017,1 30 0 0,0
25.09.2018 14:00:00 11,5 6,0 - - 41 22 59 32 Z 1019,0 45 0 0,0
25.09.2018 13:00:00 10,5 7,6 - - 35 19 61 33 Z 1020,9 40 0 0,0
25.09.2018 12:00:00 12,0 6,4 - - 37 20 50 27 ZZW 1021,7 35 24 0,0
25.09.2018 11:00:00 12,4 8,0 - - 35 19 52 28 ZZW 1023,6 35 48 0,0
25.09.2018 10:00:00 11,5 7,8 10,7 11,7 34 18 - - Z 1024,8 26 60 0,0
25.09.2018 09:00:00 10,5 7,3 - - 28 15 - - ZZW 1025,4 40 24 0,0
25.09.2018 08:00:00 9,6 6,8 - - 26 14 - - ZZW 1026,2 35 0 0,0
25.09.2018 07:00:00 9,7 7,5 - - 28 15 - - ZZW 1026,6 40 0 0,0
25.09.2018 06:00:00 10,0 8,0 - - 31 17 - - ZW 1027,4 29 0 0,0
25.09.2018 05:00:00 10,5 8,5 - - 29 16 - - ZW 1027,8 30 0 0,0
25.09.2018 04:00:00 10,2 8,9 - - 31 17 - - WZW 1028,0 30 0 0,2
25.09.2018 03:00:00 10,4 9,6 - - 28 15 - - ZW 1028,7 6 0 0,2
25.09.2018 02:00:00 10,0 9,4 - - 28 15 - - ZW 1028,9 30 0 0,2
25.09.2018 01:00:00 10,1 9,0 - - 31 17 - - ZW 1029,6 10 - 0,0
25.09.2018 00:00:00 10,2 7,9 - - 28 15 - - ZW 1029,6 30 0 0,0
24.09.2018 23:00:00 9,9 7,8 - - 22 12 - - ZW 1029,9 30 0 0,0
24.09.2018 22:00:00 10,6 7,6 - - 28 15 - - WZW 1030,2 30 0 0,0
24.09.2018 21:00:00 10,1 8,2 - - 22 12 - - WZW 1030,4 23 0 0,0
24.09.2018 20:00:00 9,4 7,5 - - 26 14 - - WZW 1030,3 30 0 0,2
24.09.2018 19:00:00 9,9 7,0 - - 18 10 - - WZW 1030,7 30 0 0,0
24.09.2018 18:00:00 10,4 6,8 - - 18 10 - - W 1030,9 27 36 0,2
24.09.2018 17:00:00 10,7 5,3 - - 24 13 - - W 1031,0 40 36 0,0
24.09.2018 16:00:00 11,9 4,8 - - 29 16 46 25 W 1031,0 35 42 0,0
24.09.2018 15:00:00 11,7 4,6 - - 31 17 - - W 1031,2 30 48 0,0
24.09.2018 14:00:00 10,9 4,9 - - 28 15 - - W 1031,1 35 18 0,2
24.09.2018 13:00:00 11,1 4,5 - - 28 15 - - W 1030,9 50 30 0,0
24.09.2018 12:00:00 11,3 5,0 - - 26 14 - - W 1030,5 30 54 0,0
24.09.2018 11:00:00 10,0 6,5 - - 24 13 - - W 1030,4 30 30 0,0
24.09.2018 10:00:00 8,3 5,4 10,7 11,7 13 7 - - W 1029,8 50 6 0,0
24.09.2018 09:00:00 8,2 6,2 - - 9 5 - - W 1029,4 40 6 0,0
24.09.2018 08:00:00 6,0 5,0 - - 11 6 - - WZW 1028,7 40 0 0,2
24.09.2018 07:00:00 5,1 3,5 - - 15 8 - - WZW 1028,5 50 0 0,0
24.09.2018 06:00:00 6,5 3,8 - - 22 12 - - W 1028,3 35 0 0,6
24.09.2018 05:00:00 4,8 3,3 - - 13 7 - - WZW 1028,0 50 0 0,0
24.09.2018 04:00:00 4,5 3,1 - - 11 6 - - W 1027,8 50 0 0,0
24.09.2018 03:00:00 4,7 3,3 - - 11 6 - - W 1027,5 45 0 0,0
24.09.2018 02:00:00 3,9 2,3 - - 11 6 - - W 1027,0 40 0 0,0
24.09.2018 01:00:00 6,3 3,8 - - 16 9 - - WNW 1026,0 45 - 0,0
24.09.2018 00:00:00 7,6 4,9 - - 21 11 - - NW 1025,2 50 0 0,0
23.09.2018 23:00:00 8,1 4,7 - - 31 17 48 26 W 1023,7 40 0 0,0
23.09.2018 22:00:00 4,6 2,6 - - 11 6 59 32 W 1023,5 30 0 0,2
23.09.2018 21:00:00 6,4 3,5 - - 15 8 - - WNW 1023,3 40 0 0,0
23.09.2018 20:00:00 7,1 3,8 - - 28 15 46 25 WNW 1023,1 40 0 0,0
23.09.2018 19:00:00 7,2 4,0 - - 16 9 - - W 1022,5 40 6 0,2
23.09.2018 18:00:00 8,6 4,2 - - 13 7 - - W 1021,5 45 24 0,2
23.09.2018 17:00:00 8,8 4,0 - - 16 9 - - WNW 1020,9 45 24 0,0
23.09.2018 16:00:00 10,3 4,1 - - 24 13 - - WNW 1020,3 30 48 0,0
23.09.2018 15:00:00 11,1 2,3 - - 28 15 - - NW 1019,8 45 48 0,0
23.09.2018 14:00:00 11,2 4,0 - - 29 16 - - NNW 1019,2 40 42 0,0
23.09.2018 13:00:00 10,3 3,9 - - 28 15 - - NW 1018,4 40 36 0,0
23.09.2018 12:00:00 10,2 4,2 - - 31 17 - - NW 1017,7 45 36 0,0
23.09.2018 11:00:00 9,9 4,1 - - 24 13 - - NW 1017,1 30 42 0,0
23.09.2018 10:00:00 9,6 3,0 11,0 11,9 28 15 - - NW 1016,3 26 60 0,0
23.09.2018 09:00:00 8,4 4,8 - - 13 7 - - WNW 1015,7 27 48 0,0
23.09.2018 08:00:00 6,0 3,6 - - 13 7 - - W 1015,3 35 6 0,2
23.09.2018 07:00:00 5,6 2,7 - - 15 8 - - WNW 1014,7 35 0 0,0
23.09.2018 06:00:00 6,3 3,0 - - 15 8 - - NW 1014,2 35 0 0,0
23.09.2018 05:00:00 5,4 2,1 - - 13 7 - - WNW 1013,9 40 0 0,0
23.09.2018 04:00:00 6,1 2,0 - - 16 9 - - WNW 1014,0 35 0 0,0
23.09.2018 03:00:00 5,7 2,4 - - 15 8 - - W 1013,7 30 0 0,0
23.09.2018 02:00:00 6,1 3,2 - - 15 8 - - WNW 1013,6 28 0 0,0
23.09.2018 01:00:00 6,0 2,8 - - 13 7 - - W 1013,5 25 - 0,0
23.09.2018 00:00:00 6,5 3,3 - - 16 9 - - WNW 1013,2 21 0 0,0
22.09.2018 23:00:00 6,5 2,8 - - 15 8 - - WNW 1012,8 25 0 0,0
22.09.2018 22:00:00 7,3 3,0 - - 18 10 - - WNW 1012,3 30 0 0,0
22.09.2018 21:00:00 7,2 3,6 - - 15 8 - - WNW 1011,9 22 0 0,0
22.09.2018 20:00:00 7,7 3,9 - - 18 10 - - WNW 1011,3 19 0 0,0
22.09.2018 19:00:00 8,4 4,3 - - 22 12 - - WNW 1010,5 22 36 0,0
22.09.2018 18:00:00 8,7 4,4 - - 28 15 52 28 WNW 1009,9 24 42 0,2
22.09.2018 17:00:00 9,3 6,6 - - 29 16 52 28 WNW 1009,5 22 18 0,6
22.09.2018 16:00:00 9,3 5,9 - - 35 19 54 29 WNW 1009,3 6 18 0,2
22.09.2018 15:00:00 11,5 5,9 - - 35 19 59 32 WNW 1008,3 10 48 0,0
22.09.2018 14:00:00 11,6 6,4 - - 35 19 59 32 WNW 1007,6 28 48 0,0
22.09.2018 13:00:00 10,7 7,2 - - 35 19 57 31 W 1006,6 24 42 0,0
22.09.2018 12:00:00 11,0 7,2 - - 31 17 54 29 WNW 1005,7 14 30 0,2
22.09.2018 11:00:00 10,7 8,2 - - 28 15 57 31 WNW 1005,2 8 18 0,0
22.09.2018 10:00:00 10,4 6,9 11,4 12,0 31 17 54 29 WNW 1004,5 27 42 0,0
22.09.2018 09:00:00 10,2 7,6 - - 31 17 52 28 WNW 1003,3 7 42 0,0
22.09.2018 08:00:00 9,0 7,9 - - 31 17 61 33 WNW 1002,0 8 0 0,4
22.09.2018 07:00:00 9,3 7,5 - - 34 18 54 29 WNW 1000,3 15 0 0,2
22.09.2018 06:00:00 9,5 8,1 - - 34 18 59 32 W 999,3 20 0 0,8
22.09.2018 05:00:00 8,6 7,8 - - 37 20 59 32 W 999,1 2,3 0 0,6
22.09.2018 04:00:00 8,6 5,0 - - 37 20 70 38 W 999,5 15 0 0,4
22.09.2018 03:00:00 8,3 4,8 - - 31 17 46 25 W 999,8 28 0 0,0
22.09.2018 02:00:00 7,5 5,2 - - 24 13 - - W 999,9 30 0 0,0
22.09.2018 01:00:00 8,3 4,7 - - 34 18 48 26 W 999,8 40 - 0,0
22.09.2018 00:00:00 8,3 5,6 - - 29 16 67 36 W 999,4 25 0 0,0
21.09.2018 23:00:00 8,5 4,6 - - 39 21 61 33 W 999,2 45 0 0,2
21.09.2018 22:00:00 8,3 5,5 - - 41 22 65 35 W 998,9 35 0 0,0
21.09.2018 21:00:00 9,2 6,6 - - 34 18 68 37 W 999,0 30 0 0,2
21.09.2018 20:00:00 9,0 5,4 - - 34 18 48 26 W 998,8 40 0 0,0
21.09.2018 19:00:00 9,1 4,9 - - 31 17 50 27 W 998,3 50 12 0,0
21.09.2018 18:00:00 9,8 3,9 - - 34 18 55 30 WNW 997,9 30 24 0,0
21.09.2018 17:00:00 9,7 4,5 - - 31 17 63 34 WNW 997,4 30 18 0,0
21.09.2018 16:00:00 10,8 3,8 - - 41 22 59 32 NW 996,5 35 24 0,0
21.09.2018 15:00:00 10,3 5,0 - - 37 20 61 33 NW 995,4 26 6 0,0
21.09.2018 14:00:00 10,4 3,9 - - 41 22 61 33 NW 994,4 30 6 0,0
21.09.2018 13:00:00 9,8 4,8 - - 35 19 52 28 NW 993,3 40 0 0,0
21.09.2018 12:00:00 10,0 3,6 - - 35 19 59 32 NNW 992,3 45 0 0,0
21.09.2018 11:00:00 9,8 4,5 - - 37 20 55 30 NNW 991,4 29 0 0,0
21.09.2018 10:00:00 9,5 4,8 11,7 12,0 42 23 55 30 N 990,7 28 0 0,0
21.09.2018 09:00:00 9,4 5,1 - - 44 24 57 31 NNW 990,1 23 0 0,0
21.09.2018 08:00:00 9,5 6,6 - - 39 21 52 28 N 989,7 23 0 0,0
21.09.2018 07:00:00 9,5 7,1 - - 39 21 50 27 N 989,7 22 0 0,2
21.09.2018 06:00:00 9,3 8,1 - - 34 18 - - NNO 990,0 17 0 0,0
21.09.2018 05:00:00 9,1 7,9 - - 29 16 - - NNO 990,6 16 0 0,6
21.09.2018 04:00:00 9,4 8,9 - - 26 14 - - NNO 991,4 7 0 2,4
21.09.2018 03:00:00 8,8 8,5 - - 8 4 - - ONO 992,6 17 0 0,0
21.09.2018 02:00:00 9,3 8,9 - - 5 3 - - NO 993,5 12 0 0,2
21.09.2018 01:00:00 9,0 8,6 - - 4 2 - - O 994,2 45 - 0,0
21.09.2018 00:00:00 8,9 8,4 - - 0 0 - - N 995,2 35 0 0,0
20.09.2018 23:00:00 8,6 7,8 - - 2 1 - - NW 995,4 50 0 0,0
20.09.2018 22:00:00 8,8 7,9 - - 9 5 - - ZW 996,5 45 0 0,0
20.09.2018 21:00:00 9,3 8,1 - - 11 6 - - ZW 996,8 45 0 0,0
20.09.2018 20:00:00 10,1 8,9 - - 11 6 - - Z 997,2 29 0 0,0
20.09.2018 19:00:00 10,8 9,0 - - 16 9 - - WZW 997,3 35 0 0,0
20.09.2018 18:00:00 11,5 9,3 - - 18 10 - - W 997,1 30 18 0,0
20.09.2018 17:00:00 11,5 9,1 - - 26 14 - - WZW 997,4 35 6 0,0
20.09.2018 16:00:00 12,0 9,3 - - 29 16 57 31 W 996,9 18 30 0,0
20.09.2018 15:00:00 11,5 8,7 - - 41 22 68 37 W 996,3 30 18 0,0
20.09.2018 14:00:00 13,2 9,0 - - 52 28 76 41 WZW 995,1 14 36 0,0
20.09.2018 13:00:00 11,9 9,1 - - 57 31 78 42 WZW 994,0 11 0 0,2
20.09.2018 12:00:00 11,0 8,9 - - 46 25 85 46 ZW 992,9 13 0 0,0
20.09.2018 11:00:00 11,1 7,3 - - 52 28 76 41 ZW 992,4 29 0 0,4
20.09.2018 10:00:00 9,8 6,5 12,0 12,0 50 27 81 44 ZW 992,2 13 0 0,0
20.09.2018 09:00:00 10,6 6,1 - - 55 30 83 45 ZW 991,4 21 36 0,0
20.09.2018 08:00:00 10,0 5,8 - - 42 23 67 36 ZZW 991,8 23 18 0,0

tt = temperatuur
td = dauwpunt
tt -20cm = temperatuur -20cm
tt -100cm = temperatuur -100cm
ff = windsnelheid
fx = windstoten
dd = windrichting
ppp = luchtdruk
vv = zicht
sd = Zonneschijnduur
rr = neerslag

Weerstations in de omgeving